Regional Weather Roundup
Issued by NWS

Home | Current Version | Previous Version | Text Only | Print | Product List | Glossary Off
Versions: 1 2 3 4 5 6 7 8 9 10 11 12 13 14 15 16 17 18 19 20 21 22 23 24 25 26 27 28 29 30 31 32 33 34 35 36 37 38 39 40 41 42 43 44 45 46 47 48 49 50

000
ASUS43 KLSX 222157
RWRMO

WEATHER SUMMARY FOR MISSOURI
NATIONAL WEATHER SERVICE SPRINGFIELD MO
500 PM CDT SAT APR 22 2017

NOTE: "FAIR" INDICATES FEW OR NO CLOUDS BELOW 12,000 FEET WITH NO
       SIGNIFICANT WEATHER AND/OR OBSTRUCTIONS TO VISIBILITY.
       CURRENT SKY AND/OR WEATHER CONDITIONS ARE NOT AVAILABLE FOR
       CHILLICOTHE AND FARMINGTON.

MOZ001>031-035>038-043-044-053-054-222300-
...NORTHERN AND WESTERN MISSOURI...

CITY           SKY/WX    TMP DP  RH WIND       PRES   REMARKS
KANSAS CTY INT MOSUNNY   65  31  28 NE18G25   30.11S
LEE`S SUMMIT   MOSUNNY   65  29  25 NE15G31   30.08F
ST JOSEPH      LGT RAIN  64  32  30 NE24      30.14S
CHILLICOTHE      N/A     64  28  25 N13G21    30.12S

$$
MOZ066>068-077>081-088>096-101>105-222300-
...SOUTHWEST MISSOURI...

CITY           SKY/WX    TMP DP  RH WIND       PRES   REMARKS
SPRINGFIELD    CLOUDY    50  42  74 N10       30.05R
JOPLIN         CLOUDY    51  43  74 N9        30.09R
BRANSON        LGT RAIN  46  46 100 N16       30.04R VSB 1

$$
MOZ032>034-039>042-045>050-055>058-069>072-222300-
...CENTRAL MISSOURI...

CITY           SKY/WX    TMP DP  RH WIND       PRES   REMARKS
COLUMBIA       NOT AVBL
JEFFERSON CITY CLOUDY    62  37  39 E9        30.04F
ROLLA          CLOUDY    53  42  66 NE7       30.03S

$$
MOZ051-052-059>065-222300-
...EAST CENTRAL MISSOURI...

CITY           SKY/WX    TMP DP  RH WIND       PRES   REMARKS
ST LOUIS INTL  MOSUNNY   62  36  37 NE21      30.03F

$$
MOZ072>076-082>087-097>100-106>115-222300-
...SOUTH CENTRAL AND SOUTHEAST MISSOURI...

CITY           SKY/WX    TMP DP  RH WIND       PRES   REMARKS
CAPE GIRARDEAU CLOUDY    52  46  80 N13       29.97R
POPLAR BLUFF   CLOUDY    52  47  83 N13       29.96R
WEST PLAINS    CLOUDY    48  45  89 N10       30.01S

$$



USA.gov is the U.S. government's official web portal to all federal, state and local government web resources and services.